Weather History for Anaktuvuk Pass, AK

Change the Weather History Date:

Sunday, August 24, 2014

  Actual Average Record
Temperature  
Mean Temperature 43 °F -  
Max Temperature 53 °F 48 °F 64 °F (2007)
Min Temperature 33 °F 33 °F 28 °F (2002)
Degree Days  
Heating Degree Days 22    
Moisture  
Dew Point 35 °F    
Average Humidity 72    
Maximum Humidity 81    
Minimum Humidity 58    
Precipitation  
Precipitation 0.00 in - - ()
Sea Level Pressure  
Sea Level Pressure 29.90 in    
Wind  
Wind Speed 4 mph (NE)    
Max Wind Speed 14 mph    
Max Gust Speed 20 mph    
Visibility 10 miles    
Events      
Averages and records for this station are not official NWS values.
T = Trace of Precipitation, MM = Missing Value Source: NWS Daily Summary

Daily Weather History Graph

Daily Weather History Graph

Search for Another Location

Airport:

Trip Planner

Search our weather history database for the weather conditions in past years. The results will help you decide how hot, cold, wet, or windy it might be!

Date:

Astronomy

Aug. 24, 2014 Rise Set
Actual Time 6:02 AM AKDT 10:12 PM AKDT
Civil Twilight 4:47 AM AKDT 11:26 PM AKDT
Nautical Twilight 2:41 AM AKDT 1:36 AM AKDT
Astronomical Twilight Sun does not rise Sun does not rise
Moon 5:30 AM AKDT (8/24) 9:13 PM AKDT (8/24)
Length of Visible Light 18h 38m
Length of Day
16h 09m
Waning Crescent, 1% of the Moon is Illuminated
Aug 24
Waning Crescent
Aug 25
New
Sep 2
First Quarter
Sep 8
Full
Sep 15
Last Quarter

Hourly Weather History & Observations

Time (AKDT) Temp. Windchill Dew Point Humidity Pressure Visibility Wind Dir Wind Speed Gust Speed Precip Events Conditions
12:16 AM 39.2 °F - 33.8 °F 81% 30.04 in 10.0 mi Calm Calm - N/A   Clear
12:36 AM 37.4 °F - 32.0 °F 81% 30.04 in 10.0 mi Calm Calm - N/A   Clear
12:56 AM 37.4 °F - 32.0 °F 81% 30.03 in 10.0 mi Calm Calm - N/A   Clear
1:16 AM 37.4 °F - 32.0 °F 81% 30.03 in 10.0 mi Calm Calm - N/A   Clear
1:36 AM 37.4 °F - 30.2 °F 75% 30.03 in 10.0 mi Calm Calm - N/A   Clear
1:56 AM 37.4 °F - 32.0 °F 81% 30.03 in 10.0 mi Calm Calm - N/A   Clear
2:16 AM 37.4 °F - 30.2 °F 75% 30.02 in 10.0 mi Calm Calm - N/A   Clear
2:36 AM 35.6 °F - 30.2 °F 81% 30.02 in 10.0 mi Calm Calm - N/A   Clear
2:56 AM 35.6 °F - 30.2 °F 81% 30.02 in 10.0 mi Calm Calm - N/A   Clear
3:16 AM 35.6 °F - 28.4 °F 75% 30.02 in 10.0 mi Calm Calm - N/A   Clear
3:36 AM 33.8 °F - 28.4 °F 81% 30.02 in 10.0 mi Calm Calm - N/A   Clear
3:56 AM 35.6 °F - 30.2 °F 81% 30.01 in 10.0 mi Calm Calm - N/A   Clear
4:16 AM 35.6 °F - 30.2 °F 81% 30.00 in 10.0 mi Calm Calm - N/A   Clear
4:36 AM 33.8 °F - 28.4 °F 81% 30.00 in 10.0 mi Calm Calm - N/A   Clear
4:56 AM 33.8 °F 30.8 °F 28.4 °F 81% 30.00 in 10.0 mi SSE 3.5 mph - N/A   Clear
5:16 AM 33.8 °F - 28.4 °F 81% 30.00 in 10.0 mi Calm Calm - N/A   Clear
5:36 AM 33.8 °F - 28.4 °F 81% 30.00 in 10.0 mi Calm Calm - N/A   Clear
5:56 AM 33.8 °F - 28.4 °F 81% 29.99 in 10.0 mi Calm Calm - N/A   Clear
6:16 AM 33.8 °F - 28.4 °F 81% 29.99 in 10.0 mi Calm Calm - N/A   Clear
6:36 AM 33.8 °F 30.8 °F 28.4 °F 81% 29.98 in 10.0 mi SSW 3.5 mph - N/A   Clear
6:56 AM 35.6 °F 32.8 °F 30.2 °F 81% 29.98 in 10.0 mi WSW 3.5 mph - N/A   Clear
7:16 AM 33.8 °F - 28.4 °F 81% 29.98 in 10.0 mi Calm Calm - N/A   Clear
7:36 AM 35.6 °F - 28.4 °F 75% 29.97 in 10.0 mi Calm Calm - N/A   Clear
7:56 AM 33.8 °F - 28.4 °F 81% 29.97 in 10.0 mi Calm Calm - N/A   Clear
8:16 AM 35.6 °F 32.8 °F 30.2 °F 81% 29.97 in 10.0 mi NE 3.5 mph - N/A   Mostly Cloudy
8:36 AM 39.2 °F 37.0 °F 33.8 °F 81% 29.96 in 10.0 mi North 3.5 mph - N/A   Overcast
8:56 AM 42.8 °F 40.1 °F 35.6 °F 76% 29.96 in 10.0 mi NNE 4.6 mph - N/A   Overcast
9:16 AM 41.0 °F 38.0 °F 33.8 °F 76% 29.96 in 10.0 mi NNE 4.6 mph - N/A   Scattered Clouds
9:36 AM 42.8 °F 40.1 °F 35.6 °F 76% 29.95 in 10.0 mi NNE 4.6 mph - N/A   Mostly Cloudy
9:56 AM 42.8 °F 39.3 °F 35.6 °F 76% 29.94 in 10.0 mi NE 5.8 mph - N/A   Mostly Cloudy
10:16 AM 44.6 °F 40.7 °F 35.6 °F 71% 29.94 in 10.0 mi NNE 6.9 mph - N/A   Scattered Clouds
10:36 AM 46.4 °F 42.9 °F 35.6 °F 66% 29.93 in 10.0 mi NNE 6.9 mph - N/A   Scattered Clouds
10:56 AM 46.4 °F 42.9 °F 37.4 °F 71% 29.93 in 10.0 mi North 6.9 mph - N/A   Mostly Cloudy
11:16 AM 46.4 °F 42.9 °F 37.4 °F 71% 29.92 in 10.0 mi NE 6.9 mph - N/A   Overcast
11:36 AM 48.2 °F - 37.4 °F 66% 29.92 in 10.0 mi NE 8.1 mph - N/A   Overcast
11:56 AM 50.0 °F - 37.4 °F 62% 29.91 in 10.0 mi NNE 8.1 mph - N/A   Overcast
12:16 PM 48.2 °F - 37.4 °F 66% 29.91 in 10.0 mi NE 9.2 mph - N/A   Overcast
12:36 PM 50.0 °F - 37.4 °F 62% 29.90 in 10.0 mi NE 9.2 mph - N/A   Overcast
12:56 PM 51.8 °F - 37.4 °F 58% 29.89 in 10.0 mi NE 9.2 mph - N/A   Overcast
1:16 PM 51.8 °F - 37.4 °F 58% 29.89 in 10.0 mi NE 10.4 mph - N/A   Overcast
1:36 PM 51.8 °F - 39.2 °F 62% 29.88 in 10.0 mi NE 12.7 mph - N/A   Overcast
1:56 PM 51.8 °F - 39.2 °F 62% 29.87 in 10.0 mi NE 12.7 mph - N/A   Overcast
2:16 PM 51.8 °F - 39.2 °F 62% 29.87 in 10.0 mi NE 10.4 mph - N/A   Overcast
2:36 PM 51.8 °F - 39.2 °F 62% 29.86 in 10.0 mi NE 11.5 mph 17.3 mph N/A   Overcast
2:56 PM 51.8 °F - 39.2 °F 62% 29.85 in 10.0 mi NE 11.5 mph - N/A   Overcast
3:16 PM 53.6 °F - 39.2 °F 58% 29.85 in 10.0 mi NNE 11.5 mph 16.1 mph N/A   Overcast
3:36 PM 53.6 °F - 39.2 °F 58% 29.84 in 10.0 mi NE 12.7 mph 16.1 mph N/A   Overcast
3:56 PM 53.6 °F - 39.2 °F 58% 29.83 in 10.0 mi NE 12.7 mph - N/A   Overcast
4:16 PM 53.6 °F - 39.2 °F 58% 29.82 in 10.0 mi NE 10.4 mph - N/A   Overcast
4:36 PM - - - N/A% 29.81 in 10.0 mi North - - N/A   Overcast
4:56 PM 53.6 °F - 39.2 °F 58% 29.81 in 10.0 mi NNE 11.5 mph - N/A   Overcast
5:16 PM 53.6 °F - 39.2 °F 58% 29.81 in 10.0 mi NE 12.7 mph 17.3 mph N/A   Overcast
5:36 PM 53.6 °F - 41.0 °F 62% 29.80 in 10.0 mi NE 12.7 mph - N/A   Overcast
5:56 PM 53.6 °F - 39.2 °F 58% 29.79 in 10.0 mi NE 13.8 mph - N/A   Overcast
6:16 PM 53.6 °F - 41.0 °F 62% 29.79 in 10.0 mi NE 10.4 mph 16.1 mph N/A   Mostly Cloudy
6:36 PM 53.6 °F - 39.2 °F 58% 29.78 in 10.0 mi NE 11.5 mph - N/A   Partly Cloudy
6:56 PM 53.6 °F - 39.2 °F 58% 29.78 in 10.0 mi NNE 10.4 mph - N/A   Clear
7:16 PM 53.6 °F - 41.0 °F 62% 29.77 in 10.0 mi NE 11.5 mph - N/A   Clear
7:36 PM 51.8 °F - 41.0 °F 67% 29.77 in 10.0 mi NE 9.2 mph - N/A   Partly Cloudy
7:56 PM 50.0 °F - 41.0 °F 71% 29.77 in 10.0 mi NE 12.7 mph 17.3 mph N/A   Partly Cloudy
8:16 PM 48.2 °F - 39.2 °F 71% 29.77 in 10.0 mi ENE 11.5 mph - N/A   Clear
8:36 PM 48.2 °F - 39.2 °F 71% 29.77 in 10.0 mi ENE 13.8 mph 19.6 mph N/A   Clear
8:56 PM 48.2 °F - 39.2 °F 71% 29.76 in 10.0 mi ENE 11.5 mph - N/A   Clear
9:16 PM 46.4 °F 41.9 °F 39.2 °F 76% 29.76 in 10.0 mi ENE 9.2 mph - N/A   Scattered Clouds
9:36 PM 46.4 °F 41.9 °F 39.2 °F 76% 29.76 in 10.0 mi ENE 9.2 mph - N/A   Mostly Cloudy
9:56 PM 44.6 °F 38.8 °F 39.2 °F 81% 29.76 in 10.0 mi ENE 11.5 mph - N/A   Scattered Clouds
10:16 PM 44.6 °F 39.2 °F 39.2 °F 81% 29.76 in 10.0 mi ENE 10.4 mph - N/A   Mostly Cloudy
10:36 PM 44.6 °F 39.2 °F 37.4 °F 76% 29.76 in 10.0 mi NE 10.4 mph - N/A   Overcast
10:56 PM 44.6 °F 39.2 °F 39.2 °F 81% 29.76 in 10.0 mi NE 10.4 mph - N/A   Overcast
11:16 PM 44.6 °F 40.2 °F 39.2 °F 81% 29.76 in 10.0 mi NNE 8.1 mph - N/A   Overcast
11:36 PM 44.6 °F 40.7 °F 37.4 °F 76% 29.75 in 10.0 mi NNE 6.9 mph - N/A   Overcast
11:56 PM 42.8 °F 38.6 °F 37.4 °F 81% 29.75 in 10.0 mi NNE 6.9 mph - N/A   Overcast